Regional Weather Roundup
Issued by NWS

Home | Current Version | Previous Version | Text Only | Print | Product List | Glossary On
Versions: 1 2 3 4 5 6 7 8 9 10 11 12 13 14 15 16 17 18 19 20 21 22 23 24 25 26 27 28 29 30 31 32 33 34 35 36 37 38 39 40 41 42 43 44 45 46 47 48 49 50
000
ASUS44 KOUN 192310
RWROK

WEATHER ROUNDUP FOR OKLAHOMA
NATIONAL WEATHER SERVICE NORMAN OK
500 PM CST FRI DEC 19 2014

NOTE: "FAIR" INDICATES FEW OR NO CLOUDS BELOW 12,000 FEET WITH NO
      SIGNIFICANT WEATHER AND/OR OBSTRUCTIONS TO VISIBILITY.

OKZ001>007-009>012-014-015-017-200000-
NORTHWEST OKLAHOMA AND THE PANHANDLE

CITY           SKY/WX    TMP DP  RH WIND       PRES   REMARKS
GAGE           CLOUDY    41  37  86 S7        30.15R
ENID/WOODRING  CLOUDY    41  34  75 CALM      30.19R
$$

OKZ016-021>023-033>039-044-045-200000-
SOUTHWEST OKLAHOMA

CITY           SKY/WX    TMP DP  RH WIND       PRES   REMARKS
LAWTON/REGL    CLOUDY    45  38  76 E7        30.19R
LAWTON/FT SILL CLOUDY    44  37  78 NE5       30.17S
FREDERICK      CLOUDY    45  39  79 CALM      30.16S
CLINTON        CLOUDY    44  36  73 N5        30.18R
HOBART         CLOUDY    44  36  73 E5        30.18R
ALTUS AFB      CLOUDY    45  39  81 SE2       30.18S
$$

OKZ018>020-024>031-200000-
CENTRAL OKLAHOMA

CITY           SKY/WX    TMP DP  RH WIND       PRES   REMARKS
OKLAHOMA CITY  CLOUDY    42  36  79 NW3       30.19R
OKC/WILEY POST CLOUDY    41  37  86 N5        30.20R
OKC/TINKER AFB CLOUDY    40  37  89 NE5       30.18S
STILLWATER     CLOUDY    41  32  70 CALM      30.20R
GUTHRIE        CLOUDY    41  35  79 CALM      30.20R
$$

OKZ008-013-054>072-200000-
NORTHEAST OKLAHOMA

CITY           SKY/WX    TMP DP  RH WIND       PRES   REMARKS
TULSA          CLOUDY    41  36  82 N5        30.22S
TULSA/JONES    CLOUDY    41  35  79 CALM      30.22S
PONCA CITY     CLOUDY    41  33  73 E3        30.19S
BARTLESVILLE   CLOUDY    38  34  85 NE3       30.22S
MUSKOGEE       CLOUDY    41  38  89 NW7       30.22S FOG
$$

OKZ032-040>043-046>053-073>077-200000-
SOUTH CENTRAL/SOUTHEAST OKLAHOMA

CITY           SKY/WX    TMP DP  RH WIND       PRES   REMARKS
ARDMORE/DWNTWN CLOUDY    43  41  93 N5        30.19S
MCALESTER      FOG       42  41  96 N7        30.21R VSB 1/4
$$




USA.gov is the U.S. government's official web portal to all federal, state and local government web resources and services.